Regional Weather Roundup
Issued by NWS Wakefield, VA

Home | Current Version | Previous Version | Text Only | Print | Product List | Glossary On
Versions: 1 2 3 4 5 6 7 8 9 10 11 12 13 14 15 16 17 18 19 20 21 22 23 24 25 26 27 28 29 30 31 32 33 34 35 36 37 38 39 40 41 42 43 44 45 46 47 48 49 50
000
ASUS41 KAKQ 280810
RWRAKQ

REGIONAL WEATHER ROUNDUP
NATIONAL WEATHER SERVICE WAKEFIELD VA
300 AM EST SUN DEC 28 2014

Note: "fair" indicates few or no clouds below 12,000 feet with no
significant weather and/or obstructions to visibility. * = Denotes
station may not report precipitation (e.g., rain,snow,etc.),
thunder or fog.

VAZ042-051-052>054-056-280900-
NORTHERN VIRGINIA

CITY           SKY/WX    TMP DP  RH WIND       PRES   REMARKS
WASH NATIONAL  MOCLDY    49  38  65 S9        29.99F
DULLES         MOCLDY    47  37  68 S6        29.97F
FORT BELVOIR   MOCLDY    41  37  86 CALM      30.00F
QUANTICO       MOCLDY    46  39  76 SW10      30.00F
FREDERICKSBRG* PTCLDY    53  39  60 S8        29.99F
STAFFORD*      PTCLDY    49  37  63 S3        30.03F
WARRENTON      MOCLDY    53  44  71 SW7       29.97F
CULPEPER*      PTCLDY    50  39  66 SW3       29.98F
MANASSAS*      PTCLDY    48  41  76 S5        29.98F
LEESBURG*      CLOUDY    43  36  75 CALM      29.97F
WINCHESTER     CLOUDY    54  21  28 W8        29.95F
FRONT ROYAL*   CLOUDY    52  30  43 CALM      29.94F
LURAY*         PTSUNNY   54  32  43 SW9       29.96F
$$

VAZ048-049-060>072-079>083-280900-
CENTRAL AND SOUTH CENTRAL VIRGINIA

CITY           SKY/WX    TMP DP  RH WIND       PRES   REMARKS
RICHMOND       PTCLDY    48  38  68 S8        30.06F
CHESTERFIELD*  PTSUNNY   54  32  43 SW8       30.07F
PETERSBURG*    CLOUDY    55  38  54 S7        30.08F
HANOVER        PTCLDY    51  38  60 S10       30.05F
TAPPAHANNOCK*  PTCLDY    51  35  54 S7        30.05F
QUINTON*       MOSUNNY   50  39  64 S3        30.07F
CHARLOTTSVILLE CLEAR     49  37  63 S12       29.97F
GORDONSVILLE*  MOSUNNY   43  37  78 SW6       29.99F
ORANGE*        PTCLDY    43  37  81 CALM      30.00F
LOUISA*        PTCLDY    52  39  62 S5        29.99F
BUMPASS*       MOSUNNY   52  38  58 SW8       30.01F
FARMVILLE*     MOCLDY    53  39  59 SW8       30.02F
CREWE*         CLOUDY    54  37  54 SW7       30.06F
FORT PICKETT*  CLOUDY    52  39  61 SW10      30.07F
CHASE CITY*    CLOUDY    51  42  72 SE3       30.08F
CLARKSVILLE*   CLOUDY    50  39  66 CALM      30.08F
SOUTH HILL*    CLOUDY    47  39  75 S7        30.15F
LAWRENCEVILLE* CLOUDY    49  40  72 S5        30.09F
EMPORIA*       CLOUDY    45  37  76 CALM      30.12F
$$

VAZ088>098-280900-
SOUTHEAST VIRGINIA

CITY           SKY/WX    TMP DP  RH WIND       PRES   REMARKS
NORFOLK        MOCLDY    49  39  68 SW12      30.10S
VIRGINIA BEACH CLOUDY    50  41  71 SW10      30.10F
NORFOLK NAVAL  CLOUDY    53  40  61 SW8       30.11F
WEST POINT*    PTCLDY    54  37  54 SW3       30.09F
SALUDA*        PTSUNNY   52  38  59 SW3       30.06F
NEWPORT NEWS   PTCLDY    52  39  61 SW9       30.10S
LANGLEY AFB    MOCLDY    51  39  62 SW12      30.09F
FORT EUSTIS    MOCLDY    50  49  94 S7        30.08F
WILLIAMSBURG*  MOCLDY    54  43  66 SW5       30.09F
HR EXEC AP*    PTSUNNY   48  39  71 SW8       30.13F
FRANKLIN*      CLOUDY    45  39  81 S3        30.12F
WAKEFIELD      CLOUDY    50  38  63 SW6       30.10F
$$

VAZ020-022-025-037-045-280900-
WEST CENTRAL AND SOUTHWEST VIRGINIA

CITY           SKY/WX    TMP DP  RH WIND       PRES   REMARKS
STAUNTON*      PTCLDY    45  32  60 S5        29.98F
WAYNESBORO*    SUNNY     43  30  59 CALM      29.98F
HOT SPRINGS VA CLOUDY    50  27  41 W16       30.00F
LYNCHBURG      PTCLDY    46  37  71 S7        30.03F
DANVILLE       CLOUDY    51  38  60 SW7       30.09F
SOUTH BOSTON*  CLOUDY    50  38  62 SW7       30.08F
MARTINSVILLE   CLOUDY    53  37  54 SW5       30.10S
ROANOKE        MOCLDY    50  34  54 SW5       30.05F
BLACKSBURG     PTCLDY    40  32  75 CALM      30.07F
DUBLIN*        PTCLDY    43  36  77 NW3       30.06F
MARION*        PTCLDY    43  32  65 CALM      30.08F
HILLSVILLE*    MOCLDY    48  31  52 S6        30.06F
RICHLANDS*     CLOUDY    48  27  43 W12G17    30.05S
WISE*          LGT RAIN  45  37  76 W6        30.08R
ABINGDON*      CLOUDY    47  38  71 CALM      30.08S
$$

MDZ021>025-VAZ099-100-280900-
SOUTHERN MARYLAND AND THE DELMARVA PENINSULA

CITY           SKY/WX    TMP DP  RH WIND       PRES   REMARKS
PATUXENT RIVER MOCLDY    51  37  58 SW13      30.02S
BAY BRIDGE APT LGT RAIN  46  37  71 S7        29.99F
LEONARDTOWN    MOCLDY    52  36  54 SW7       30.04F
DOVER          CLOUDY    46  41  82 S8        29.98F
GEORGETOWN     PTCLDY    48  39  71 S7        30.03F
EASTON         CLOUDY    51  42  72 SW9       30.04F
CAMBRIDGE      MOCLDY    48  41  76 S3        30.02F
SALISBURY      PTCLDY    49  40  71 S8        30.04F
OCEAN CITY     MOCLDY    48  42  80 SW8       30.05F
WALLOPS ISLAND MOCLDY    45  43  93 SW9       30.07F
ACCOMACK*      PTCLDY    46  37  71 SW7       30.07F
$$

NCZ012>017-030>032-280900-
NORTH CENTRAL AND EASTERN NORTH CAROLINA

CITY           SKY/WX    TMP DP  RH WIND       PRES   REMARKS
ROANOKE RAPIDS CLOUDY    45  39  81 SW7       30.12F
RALEIGH        CLOUDY    48  39  71 SW5       30.14F
ELIZABETH CITY CLOUDY    51  43  74 SW8       30.14F
AHOSKIE*       CLOUDY    46  42  85 CALM      30.14F
EDENTON*         N/A     47  44  88 SW5       30.15S
CURRITUCK*     CLOUDY    49  41  72 SW7       30.14F
KILL DEVIL HLS CLOUDY    50  44  80 SW6       30.12F
MANTEO         CLOUDY    48  45  87 SW7       30.14F
CAPE HATTERAS  PTCLDY    55  50  83 W7        30.16F
TARBORO*       CLOUDY    51  45  78 SW5       30.16S
GOLDSBORO      CLOUDY    48  47  98 S1        30.15F
WASHINGTON     MOCLDY    48  43  82 SW3       30.16S
GREENVILLE     CLOUDY    50  43  76 S6        30.16F
NEW BERN       MOCLDY    50  45  83 W3        30.18S
WILMINGTON     MOCLDY    49  47  93 CALM      30.17S
$$

VAZ048-280900-
ELSEWHERE

CITY           SKY/WX    TMP DP  RH WIND       PRES   REMARKS
HARRISBURG PA  CLOUDY    42  34  73 E7        29.94F
BALTIMORE      MOCLDY    39  35  86 CALM      29.98F
ANNAPOLIS      CLOUDY    46  40  79 S7        29.99F
ANDREWS AFB    MOCLDY    49  38  65 S10       29.97F
PHILADELPHIA   MOCLDY    41  36  82 CALM      29.99F
HENDERSON NC   CLOUDY    49  37  64 S10       30.10F
GREENSBORO     CLOUDY    51  38  60 SW9       30.08F
ROCKY MOUNT    CLOUDY    50  42  74 S5        30.15F
$$

VAZ100-280900-
MARINE

STATION/POSITION TIME  TEMP    WIND        PRES    WAVE   SWELL
                       AIR SEA DIR/SP/G            HT/PER HT/PER
                 (UTC) (F)     (DEG/KT/KT) (MB)    (FT/S) (FT/S)
CAPE MAY NJ      0800   47 46  170/  8/ 12 1016.5F
LEWES DE         0800   51 44  230/  7/ 12 1016.7F
15NM E FENWICK I 0800   47 45              1017.2F   3/14
OCEAN-CITY-INLET 0800   47 45  230/ 10/ 11 1017.2F
WACHAPREAGUE VA  0800   46 48  210/  6/  8 1018.6S
THOMAS POINT MD  0800   46 43  170/ 14/ 15 1016.6F
GOOSES REEF MD   0800   47     VRB 10/ 10  1015.2F   1/ 2
COVE POINT MD    0800   51     210/  8/ 12 1016.4F
SOLOMONS ISLAND  0800      44                N/A
BISHOPS HEAD MD  0800   47 44  180/ 11/ 14 1016.6F
PINEY POINT MD   0800          240/  7/  9   N/A
POTOMAC MD       0800   50 43  220/  8/ 10 1016.4F   1
CAMBRIDGE MD     0800   48 43  180/  4/  6 1016.6F
LEWISETTA VA     0800   53 44  230/ 15/ 20 1016.5F
RAPPAHANNOCK LGT 0800          180/ 17/ 17 1018.6F
STINGRAY PT      0800   48 45  220/  4/  4 1018.7F   1
YORK RVR RNG VA  0800   52     230/ 15/ 19 1017.7F
YORKTOWN VA      0800   52 46  230/ 11/ 14 1018.2F
JAMESTOWN VA     0800   51 46  240/  6/  8   N/A     0
DOMINION TERM VA 0800   49     220/  9/ 10 1019.5F
KIPTOPEKE VA     0800      50  200/  8/  8   N/A
CHES BAY BRIDGE  0800   51 46  200/ 14/ 16 1018.8F
CAPE HENRY VA    0800   51     210/  7/ 13 1018.2F
CHESAPEAKE LGHT  0700   49     210/ 16/ 17 1020.2F
WILLOUBY STN VA  0800   51     220/ 14/ 16 1019.4F
S CRANEY ISL VA  0800          200/  4/  6 1019.3F
CAPE HENRY BUOY  0700      47                N/A     2/15   2/15
1ST LANDING BUOY 0800   51 46  220/ 12/ 16 1018.6F   1/ 4
CAPE CHARLES BUO 0800      48                N/A     2/14   2/14
64NM E OF VA BCH 0800   54 53  230/ 12/ 14 1019.8S   4/14   3/14
DUCK PIER NC     0800   52 49  230/  9/ 12 1019.5F
44100 DUCK FRF   0800      50                N/A     3/14   3/14
44056 DUCK FRF   0800      48                N/A     3/14   3/14
OREGON INLET NC  0800   52 53  210/  7/  8 1020.9F
HATTERAS NC      0800   56 54  240/  5/  6 1021.5F
DIAMOND SHLS NC  0800   68                 1021.3F   4/15
CAPE LOOKOUT NC  0700   60     220/  3/  4 1021.6F
$$


USA.gov is the U.S. government's official web portal to all federal, state and local government web resources and services.